[Date Prev][Date Next][Thread Prev][Thread Next] - [Date Index][Thread Index][Author Index]

STS-121 & ISS KEPS 5 JULY 2006



SUBMITTED BY ARTHUR N1ORC AMSAT A/C #31468


ISS (ZARYA)             
1 25544U 98067A   06186.13696712  .00011947  00000-0  78753-4 0  2298
2 25544  51.6301  95.0250 0010748  41.0640 106.0561 15.76088286435994
STS-121                 
1 29251U 06028A   06186.16669365  .00949802  12166-4  11688-3 0    33
2 29251  51.6538  95.2544 0055913 344.0306 163.8304 16.30147425    65
----
Via the sarex mailing list at AMSAT.ORG courtesy of AMSAT-NA.
To unsubscribe, send "unsubscribe sarex" to Majordomo@amsat.org



AMSAT Top AMSAT Home